星链-2258 (STARLINK-2258 )

导读 | 豆包AI

STARLINK-2258是美国太空探索技术公司(SpaceX)星链(Starlink)卫星互联网项目的组网卫星,于2021年3月14日发射升空,为全球提供低延迟、高速率的卫星互联网接入服务。该卫星部署在近地轨道,是星链星座大规模组网过程中,构建全球覆盖卫星通信网络的重要组成部分。

Basic Information
目录编号:
47860
目录名称:
STARLINK-2258
国际标识:
2021-021A
轨道中心:
EARTH
卫星名称:
星链-2258
卫星全名:
星链-2258 (STARLINK-2258 )
卫星状态:
已陨落 最后检测时间 2025-01-30
发射日期:
2021-03-14 UTC
国别 :
美国 (US)
星等 :
--
Orbit Information
数据来源 国际轨道数据
星历时间: 2025-01-30T13:19:23+0800
轨道信息已过期408天
半长轴: 6548.303km
偏心率: 0.0007025
轨道倾角: 53.032°
近地点辐角 229.943°
升交点赤经 262.937°
平近点角 204.135°
近地点: 165.567km
远地点: 174.769km
周期: 87.893分钟
每日圈数: 16.383614
Detailed Information
固有亮度:
5
最大亮度:
2.5
卫星平台:
Starlink V1.0
覆盖范围:
全球
运营商:
太空探索技术公司
运营商所在国:
美国
制造商(研发单位):
太空探索技术公司
制造商所在国:
美国
使用方式:
暂无
Satellite Introduction
星链(Starlink)计划是由太空探索技术公司(SpaceX)提出的一个巨型低轨卫星互联网星座项目,计划在2019年至2024年间在太空搭建由约1.2万颗卫星组成的“星链”网络,其中1584颗将部署在地球上空550千米处的近地轨道,并从2020年开始工作。该卫星仍在工作。